Weather Roundup
Issued by NWS Springfield, MO

Home | Current Version | Previous Version | Text Only | Print | Product List | Glossary On
Versions: 1 2 3 4 5 6 7 8 9 10 11 12 13 14 15 16 17 18 19 20 21 22 23 24 25 26 27 28 29 30 31 32 33 34 35 36 37 38 39 40 41 42 43 44 45 46 47 48 49 50
000
NZUS99 KSGF 251607
HRRSGF

HOURLY WEATHER
NATIONAL WEATHER SERVICE SPRINGFIELD MO
1100 AM CDT SUN JUN 25 2017

......SGF CWA......

CITY           SKY/WX    TMP DP  RH WIND       PRES   REMARKS
SPRINGFIELD    SUNNY     77  56  48 NW9       30.29S
JOPLIN         SUNNY     81  57  43 NW6       30.30S
WEST PLAINS    SUNNY     80  49  33 NW9       30.30S
ROLLA          SUNNY     74  55  51 W12G18    30.26R
OSAGE BEACH    SUNNY     75  54  47 W9        30.29R
BRANSON        MOSUNNY   77  48  36 NW6       30.32R

......SURROUNDING SGF CWA......

CITY           SKY/WX    TMP DP  RH WIND       PRES   REMARKS
CHANUTE        SUNNY     81  50  33 VRB5      30.29R
PARSONS        SUNNY     81  53  37 VRB3      30.30R
COFFEYVILLE    SUNNY     81  55  40 VRB3      30.28S
EMPORIA        CLOUDY    74  57  55 N6        30.31R
GROVE OK       SUNNY     79  54  41 CALM      30.30S
ROGERS AR      MOSUNNY   78  51  38 CALM      30.32R
SILOAM SPRINGS SUNNY     79  48  34 E3        30.30S
HARRISON AR    MOSUNNY   77  52  41 N3        30.31S
NEAR YELLVILLE MOSUNNY  N/A N/A N/A NW5       30.27S

......KANSAS AND MISSOURI......

CITY           SKY/WX    TMP DP  RH WIND       PRES   REMARKS
KANSAS CTY INT MOSUNNY   73  46  38 N13       30.30S
DOWNTOWN KC    SUNNY     75  46  35 N8        30.29S
COLUMBIA       SUNNY     75  51  43 NW13G20   30.26S
SEDALIA        SUNNY     75  55  49 NW8       30.29R
ST JOSEPH      SUNNY     70  47  43 N15G22    30.31S
ST LOUIS       MOSUNNY   77  50  38 NW6       30.23R
SPIRIT OF STL  SUNNY     76  54  46 NW9       30.22S
KIRKSVILLE     SUNNY     69  46  43 NW15G23   30.26S
WICHITA        CLOUDY    78  59  51 CALM      30.29F
TOPEKA         SUNNY     74  51  44 NE9       30.30S
OLATHE         SUNNY     73  47  39 N7        30.30S

......TENNESSEE......

CITY           SKY/WX    TMP DP  RH WIND       PRES   REMARKS
MEMPHIS        MOSUNNY   82  58  43 NE6       30.26R
NASHVILLE      MOSUNNY   79  49  34 N9        30.25R

......ARKANSAS.......

CITY           SKY/WX    TMP DP  RH WIND       PRES   REMARKS
FAYETTEVILLE   SUNNY     77  52  41 VRB3      30.31R
FT SMITH       SUNNY     81  58  45 NE7       30.27R
LITTLE ROCK    MOSUNNY   79  62  56 NE7       30.27R

......OKLAHOMA.......

CITY           SKY/WX    TMP DP  RH WIND       PRES   REMARKS
TULSA          MOSUNNY   82  54  37 CALM      30.26F
PONCA CITY     SUNNY     81  55  40 SW5       30.27F
MCALESTER      MOSUNNY   82  59  45 E7        30.28R
OKLAHOMA CITY  MOSUNNY   82  48  30 SE10      30.26F

......IOWA............

CITY           SKY/WX    TMP DP  RH WIND       PRES   REMARKS
DES MOINES     MOSUNNY   68  43  40 NW16G25   30.25R
QUAD CITIES    MOSUNNY   68  48  48 W15G28    30.17S

......ILLINOIS........

CITY           SKY/WX    TMP DP  RH WIND       PRES   REMARKS
QUINCY         SUNNY     71  45  39 NW18      30.22S
CHICAGO        MOSUNNY   68  46  45 W18G25    30.10S




USA.gov is the U.S. government's official web portal to all federal, state and local government web resources and services.